Location: Iwkowa
(49.8210°N, 20.5761°E)
Time: 11:05:27
(UTC+01:00)

ISS - Pass Details

Date: 27 January 2019
Orbit: 403 x 411 km, 51.6° (Epoch: 18 February)

Event Time Altitude Azimuth Distance (km) Brightness Sun altitude
Rises 18:22:49 0° 253° (WSW) 2,331 1.6 -19.1°
Reaches altitude 10° 18:24:53 10° 253° (WSW) 1,474 0.2 -19.4°
Enters shadow 18:28:11 88° 316° (NW) 416 -3.9 -20.0°
